Year,Month,Day,Hour,Minute,Value (Times are PST for temperature in C)
2007,08,06,00,00,20.40
2007,08,06,00,01,20.40
2007,08,06,00,02,20.40
2007,08,06,00,03,20.40
2007,08,06,00,04,20.40
2007,08,06,00,05,20.30
2007,08,06,00,06,20.30
2007,08,06,00,07,20.30
2007,08,06,00,08,20.30
2007,08,06,00,09,20.30
2007,08,06,00,10,20.20
2007,08,06,00,11,20.20
2007,08,06,00,12,20.20
2007,08,06,00,13,20.20
2007,08,06,00,14,20.20
2007,08,06,00,15,20.20
2007,08,06,00,16,20.20
2007,08,06,00,17,20.10
2007,08,06,00,18,20.10
2007,08,06,00,19,20.10
2007,08,06,00,20,20.10
2007,08,06,00,21,20.00
2007,08,06,00,22,20.00
2007,08,06,00,23,20.00
2007,08,06,00,24,20.00
2007,08,06,00,25,19.90
2007,08,06,00,26,19.90
2007,08,06,00,27,19.90
2007,08,06,00,28,19.90
2007,08,06,00,29,19.90
2007,08,06,00,30,19.90
2007,08,06,00,31,19.80
2007,08,06,00,32,19.80
2007,08,06,00,33,19.80
2007,08,06,00,34,19.80
2007,08,06,00,35,19.80
2007,08,06,00,36,19.70
2007,08,06,00,37,19.70
2007,08,06,00,38,19.70
2007,08,06,00,39,19.60
2007,08,06,00,40,19.60
2007,08,06,00,41,19.60
2007,08,06,00,42,19.50
2007,08,06,00,43,19.40
2007,08,06,00,44,19.40
2007,08,06,00,45,19.30
2007,08,06,00,46,19.30
2007,08,06,00,47,19.20
2007,08,06,00,48,19.20
2007,08,06,00,49,19.10
2007,08,06,00,50,19.10
2007,08,06,00,51,19.10
2007,08,06,00,52,19.00
2007,08,06,00,53,19.00
2007,08,06,00,54,19.00
2007,08,06,00,55,19.00
2007,08,06,00,56,19.10
2007,08,06,00,57,19.10
2007,08,06,00,58,19.10
2007,08,06,00,59,19.10
2007,08,06,01,00,19.20
2007,08,06,01,01,19.20
2007,08,06,01,02,19.10
2007,08,06,01,03,19.10
2007,08,06,01,04,19.10
2007,08,06,01,05,19.10
2007,08,06,01,06,19.10
2007,08,06,01,07,19.10
2007,08,06,01,08,19.10
2007,08,06,01,09,19.10
2007,08,06,01,10,19.10
2007,08,06,01,11,19.10
2007,08,06,01,12,19.10
2007,08,06,01,13,19.10
2007,08,06,01,14,19.10
2007,08,06,01,15,19.10
2007,08,06,01,16,19.10
2007,08,06,01,17,19.00
2007,08,06,01,18,19.00
2007,08,06,01,19,19.00
2007,08,06,01,20,19.00
2007,08,06,01,21,18.90
2007,08,06,01,22,18.90
2007,08,06,01,23,18.90
2007,08,06,01,24,18.90
2007,08,06,01,25,18.90
2007,08,06,01,26,18.90
2007,08,06,01,27,18.90
2007,08,06,01,28,18.90
2007,08,06,01,29,18.80
2007,08,06,01,30,18.80
2007,08,06,01,31,18.70
2007,08,06,01,32,18.60
2007,08,06,01,33,18.50
2007,08,06,01,34,18.50
2007,08,06,01,35,18.40
2007,08,06,01,36,18.30
2007,08,06,01,37,18.30
2007,08,06,01,38,18.20
2007,08,06,01,39,18.20
2007,08,06,01,40,18.10
2007,08,06,01,41,18.10
2007,08,06,01,42,18.10
2007,08,06,01,43,18.10
2007,08,06,01,44,18.10
2007,08,06,01,45,18.10
2007,08,06,01,46,18.10
2007,08,06,01,47,18.10
2007,08,06,01,48,18.00
2007,08,06,01,49,18.00
2007,08,06,01,50,18.00
2007,08,06,01,51,18.00
2007,08,06,01,52,17.90
2007,08,06,01,53,17.90
2007,08,06,01,54,17.90
2007,08,06,01,55,17.90
2007,08,06,01,56,17.80
2007,08,06,01,57,17.80
2007,08,06,01,58,17.80
2007,08,06,01,59,17.80
2007,08,06,02,00,17.80
2007,08,06,02,01,17.80
2007,08,06,02,02,17.80
2007,08,06,02,03,17.70
2007,08,06,02,04,17.70
2007,08,06,02,05,17.70
2007,08,06,02,06,17.70
2007,08,06,02,07,17.70
2007,08,06,02,08,17.70
2007,08,06,02,09,17.70
2007,08,06,02,10,17.70
2007,08,06,02,11,17.60
2007,08,06,02,12,17.70
2007,08,06,02,13,17.70
2007,08,06,02,14,17.70
2007,08,06,02,15,17.70
2007,08,06,02,16,17.70
2007,08,06,02,17,17.70
2007,08,06,02,18,17.70
2007,08,06,02,19,17.70
2007,08,06,02,20,17.60
2007,08,06,02,21,17.60
2007,08,06,02,22,17.60
2007,08,06,02,23,17.60
2007,08,06,02,24,17.60
2007,08,06,02,25,17.60
2007,08,06,02,26,17.50
2007,08,06,02,27,17.50
2007,08,06,02,28,17.50
2007,08,06,02,29,17.50
2007,08,06,02,30,17.40
2007,08,06,02,31,17.40
2007,08,06,02,32,17.40
2007,08,06,02,33,17.40
2007,08,06,02,34,17.40
2007,08,06,02,35,17.30
2007,08,06,02,36,17.30
2007,08,06,02,37,17.30
2007,08,06,02,38,17.30
2007,08,06,02,39,17.30
2007,08,06,02,40,17.20
2007,08,06,02,41,17.20
2007,08,06,02,42,17.20
2007,08,06,02,43,17.10
2007,08,06,02,44,17.10
2007,08,06,02,45,17.00
2007,08,06,02,46,17.00
2007,08,06,02,47,16.90
2007,08,06,02,48,16.90
2007,08,06,02,49,16.80
2007,08,06,02,50,16.80
2007,08,06,02,51,16.80
2007,08,06,02,52,16.70
2007,08,06,02,53,16.70
2007,08,06,02,54,16.70
2007,08,06,02,55,16.70
2007,08,06,02,56,16.70
2007,08,06,02,57,16.70
2007,08,06,02,58,16.70
2007,08,06,02,59,16.60
2007,08,06,03,00,16.60
2007,08,06,03,01,16.60
2007,08,06,03,02,16.60
2007,08,06,03,03,16.60
2007,08,06,03,04,16.60
2007,08,06,03,05,16.60
2007,08,06,03,06,16.60
2007,08,06,03,07,16.60
2007,08,06,03,08,16.50
2007,08,06,03,09,16.50
2007,08,06,03,10,16.50
2007,08,06,03,11,16.40
2007,08,06,03,12,16.40
2007,08,06,03,13,16.40
2007,08,06,03,14,16.40
2007,08,06,03,15,16.40
2007,08,06,03,16,16.30
2007,08,06,03,17,16.30
2007,08,06,03,18,16.30
2007,08,06,03,19,16.20
2007,08,06,03,20,16.20
2007,08,06,03,21,16.20
2007,08,06,03,22,16.20
2007,08,06,03,23,16.20
2007,08,06,03,24,16.20
2007,08,06,03,25,16.20
2007,08,06,03,26,16.20
2007,08,06,03,27,16.20
2007,08,06,03,28,16.20
2007,08,06,03,29,16.10
2007,08,06,03,30,16.10
2007,08,06,03,31,16.10
2007,08,06,03,32,16.10
2007,08,06,03,33,16.10
2007,08,06,03,34,16.10
2007,08,06,03,35,16.10
2007,08,06,03,36,16.10
2007,08,06,03,37,16.00
2007,08,06,03,38,16.00
2007,08,06,03,39,15.90
2007,08,06,03,40,15.90
2007,08,06,03,41,15.80
2007,08,06,03,42,15.70
2007,08,06,03,43,15.70
2007,08,06,03,44,15.60
2007,08,06,03,45,15.50
2007,08,06,03,46,15.40
2007,08,06,03,47,15.40
2007,08,06,03,48,15.30
2007,08,06,03,49,15.30
2007,08,06,03,50,15.30
2007,08,06,03,51,15.20
2007,08,06,03,52,15.20
2007,08,06,03,53,15.20
2007,08,06,03,54,15.20
2007,08,06,03,55,15.10
2007,08,06,03,56,15.00
2007,08,06,03,57,15.00
2007,08,06,03,58,15.00
2007,08,06,03,59,15.00
2007,08,06,04,00,15.00
2007,08,06,04,01,15.00
2007,08,06,04,02,15.00
2007,08,06,04,03,15.00
2007,08,06,04,04,15.00
2007,08,06,04,05,15.00
2007,08,06,04,06,15.00
2007,08,06,04,07,15.00
2007,08,06,04,08,15.00
2007,08,06,04,09,15.00
2007,08,06,04,10,14.90
2007,08,06,04,11,14.90
2007,08,06,04,12,14.80
2007,08,06,04,13,14.80
2007,08,06,04,14,14.70
2007,08,06,04,15,14.70
2007,08,06,04,16,14.70
2007,08,06,04,17,14.70
2007,08,06,04,18,14.60
2007,08,06,04,19,14.60
2007,08,06,04,20,14.60
2007,08,06,04,21,14.50
2007,08,06,04,22,14.50
2007,08,06,04,23,14.50
2007,08,06,04,24,14.40
2007,08,06,04,25,14.40
2007,08,06,04,26,14.40
2007,08,06,04,27,14.30
2007,08,06,04,28,14.30
2007,08,06,04,29,14.30
2007,08,06,04,30,14.30
2007,08,06,04,31,14.20
2007,08,06,04,32,14.20
2007,08,06,04,33,14.20
2007,08,06,04,34,14.20
2007,08,06,04,35,14.20
2007,08,06,04,36,14.20
2007,08,06,04,37,14.20
2007,08,06,04,38,14.20
2007,08,06,04,39,14.20
2007,08,06,04,40,14.20
2007,08,06,04,41,14.20
2007,08,06,04,42,14.10
2007,08,06,04,43,14.10
2007,08,06,04,44,14.10
2007,08,06,04,45,14.10
2007,08,06,04,46,14.10
2007,08,06,04,47,14.10
2007,08,06,04,48,14.00
2007,08,06,04,49,14.00
2007,08,06,04,50,14.00
2007,08,06,04,51,14.00
2007,08,06,04,52,13.90
2007,08,06,04,53,13.90
2007,08,06,04,54,13.90
2007,08,06,04,55,13.80
2007,08,06,04,56,13.80
2007,08,06,04,57,13.80
2007,08,06,04,58,13.80
2007,08,06,04,59,13.80
2007,08,06,05,00,13.80
2007,08,06,05,01,13.80
2007,08,06,05,02,13.70
2007,08,06,05,03,13.70
2007,08,06,05,04,13.70
2007,08,06,05,05,13.60
2007,08,06,05,06,13.60
2007,08,06,05,07,13.60
2007,08,06,05,08,13.60
2007,08,06,05,09,13.60
2007,08,06,05,10,13.60
2007,08,06,05,11,13.50
2007,08,06,05,12,13.50
2007,08,06,05,13,13.50
2007,08,06,05,14,13.40
2007,08,06,05,15,13.40
2007,08,06,05,16,13.50
2007,08,06,05,17,13.40
2007,08,06,05,18,13.40
2007,08,06,05,19,13.40
2007,08,06,05,20,13.40
2007,08,06,05,21,13.40
2007,08,06,05,22,13.40
2007,08,06,05,23,13.40
2007,08,06,05,24,13.40
2007,08,06,05,25,13.40
2007,08,06,05,26,13.40
2007,08,06,05,27,13.40
2007,08,06,05,28,13.40
2007,08,06,05,29,13.40
2007,08,06,05,30,13.30
2007,08,06,05,31,13.30
2007,08,06,05,32,13.30
2007,08,06,05,33,13.30
2007,08,06,05,34,13.30
2007,08,06,05,35,13.30
2007,08,06,05,36,13.30
2007,08,06,05,37,13.30
2007,08,06,05,38,13.30
2007,08,06,05,39,13.30
2007,08,06,05,40,13.30
2007,08,06,05,41,13.20
2007,08,06,05,42,13.20
2007,08,06,05,43,13.30
2007,08,06,05,44,13.30
2007,08,06,05,45,13.30
2007,08,06,05,46,13.30
2007,08,06,05,47,13.30
2007,08,06,05,48,13.30
2007,08,06,05,49,13.30
2007,08,06,05,50,13.20
2007,08,06,05,51,13.20
2007,08,06,05,52,13.20
2007,08,06,05,53,13.20
2007,08,06,05,54,13.20
2007,08,06,05,55,13.20
2007,08,06,05,56,13.20
2007,08,06,05,57,13.20
2007,08,06,05,58,13.20
2007,08,06,05,59,13.20
2007,08,06,06,00,13.20
2007,08,06,06,01,13.20
2007,08,06,06,02,13.20
2007,08,06,06,03,13.20
2007,08,06,06,04,13.20
2007,08,06,06,05,13.20
2007,08,06,06,06,13.20
2007,08,06,06,07,13.20
2007,08,06,06,08,13.20
2007,08,06,06,09,13.20
2007,08,06,06,10,13.20
2007,08,06,06,11,13.20
2007,08,06,06,12,13.20
2007,08,06,06,13,13.20
2007,08,06,06,14,13.20
2007,08,06,06,15,13.20
2007,08,06,06,16,13.20
2007,08,06,06,17,13.20
2007,08,06,06,18,13.20
2007,08,06,06,19,13.20
2007,08,06,06,20,13.20
2007,08,06,06,21,13.20
2007,08,06,06,22,13.20
2007,08,06,06,23,13.20
2007,08,06,06,24,13.30
2007,08,06,06,25,13.30
2007,08,06,06,26,13.30
2007,08,06,06,27,13.30
2007,08,06,06,28,13.30
2007,08,06,06,29,13.40
2007,08,06,06,30,13.40
2007,08,06,06,31,13.50
2007,08,06,06,32,13.50
2007,08,06,06,33,13.60
2007,08,06,06,34,13.60
2007,08,06,06,35,13.60
2007,08,06,06,36,13.70
2007,08,06,06,37,13.70
2007,08,06,06,38,13.80
2007,08,06,06,39,13.80
2007,08,06,06,40,13.80
2007,08,06,06,41,13.80
2007,08,06,06,42,13.90
2007,08,06,06,43,13.90
2007,08,06,06,44,14.00
2007,08,06,06,45,14.10
2007,08,06,06,46,14.10
2007,08,06,06,47,14.20
2007,08,06,06,48,14.20
2007,08,06,06,49,14.20
2007,08,06,06,50,14.30
2007,08,06,06,51,14.30
2007,08,06,06,52,14.40
2007,08,06,06,53,14.50
2007,08,06,06,54,14.50
2007,08,06,06,55,14.60
2007,08,06,06,56,14.70
2007,08,06,06,57,14.70
2007,08,06,06,58,14.80
2007,08,06,06,59,14.90
2007,08,06,07,00,15.00
2007,08,06,07,01,15.00
2007,08,06,07,02,15.00
2007,08,06,07,03,15.10
2007,08,06,07,04,15.20
2007,08,06,07,05,15.30
2007,08,06,07,06,15.40
2007,08,06,07,07,15.50
2007,08,06,07,08,15.50
2007,08,06,07,09,15.60
2007,08,06,07,10,15.60
2007,08,06,07,11,15.70
2007,08,06,07,12,15.80
2007,08,06,07,13,15.80
2007,08,06,07,14,15.80
2007,08,06,07,15,15.90
2007,08,06,07,16,15.90
2007,08,06,07,17,15.90
2007,08,06,07,18,16.00
2007,08,06,07,19,16.00
2007,08,06,07,20,16.00
2007,08,06,07,21,16.10
2007,08,06,07,22,16.10
2007,08,06,07,23,16.20
2007,08,06,07,24,16.30
2007,08,06,07,25,16.30
2007,08,06,07,26,16.40
2007,08,06,07,27,16.50
2007,08,06,07,28,16.60
2007,08,06,07,29,16.70
2007,08,06,07,30,16.80
2007,08,06,07,31,16.80
2007,08,06,07,32,16.90
2007,08,06,07,33,17.00
2007,08,06,07,34,17.10
2007,08,06,07,35,17.20
2007,08,06,07,36,17.30
2007,08,06,07,37,17.30
2007,08,06,07,38,17.40
2007,08,06,07,39,17.40
2007,08,06,07,40,17.50
2007,08,06,07,41,17.60
2007,08,06,07,42,17.70
2007,08,06,07,43,17.70
2007,08,06,07,44,17.80
2007,08,06,07,45,17.80
2007,08,06,07,46,17.80
2007,08,06,07,47,17.80
2007,08,06,07,48,17.90
2007,08,06,07,49,17.90
2007,08,06,07,50,17.90
2007,08,06,07,51,18.00
2007,08,06,07,52,18.00
2007,08,06,07,53,18.10
2007,08,06,07,54,18.10
2007,08,06,07,55,18.10
2007,08,06,07,56,18.10
2007,08,06,07,57,18.10
2007,08,06,07,58,18.20
2007,08,06,07,59,18.20
2007,08,06,08,00,18.20
2007,08,06,08,01,18.20
2007,08,06,08,02,18.10
2007,08,06,08,03,18.00
2007,08,06,08,04,18.00
2007,08,06,08,05,17.90
2007,08,06,08,06,17.90
2007,08,06,08,07,17.80
2007,08,06,08,08,17.80
2007,08,06,08,09,17.80
2007,08,06,08,10,17.90
2007,08,06,08,11,17.90
2007,08,06,08,12,17.90
2007,08,06,08,13,18.00
2007,08,06,08,14,18.00
2007,08,06,08,15,18.00
2007,08,06,08,16,18.00
2007,08,06,08,17,18.00
2007,08,06,08,18,18.00
2007,08,06,08,19,18.00
2007,08,06,08,20,18.10
2007,08,06,08,21,18.10
2007,08,06,08,22,18.10
2007,08,06,08,23,18.10
2007,08,06,08,24,18.10
2007,08,06,08,25,18.00
2007,08,06,08,26,17.90
2007,08,06,08,27,17.90
2007,08,06,08,28,17.80
2007,08,06,08,29,17.80
2007,08,06,08,30,17.80
2007,08,06,08,31,17.80
2007,08,06,08,32,17.80
2007,08,06,08,33,17.80
2007,08,06,08,34,17.80
2007,08,06,08,35,17.80
2007,08,06,08,36,17.80
2007,08,06,08,37,17.80
2007,08,06,08,38,17.90
2007,08,06,08,39,17.90
2007,08,06,08,40,18.00
2007,08,06,08,41,18.00
2007,08,06,08,42,18.00
2007,08,06,08,43,18.00
2007,08,06,08,44,18.10
2007,08,06,08,45,18.20
2007,08,06,08,46,18.30
2007,08,06,08,47,18.30
2007,08,06,08,48,18.30
2007,08,06,08,49,18.20
2007,08,06,08,50,18.10
2007,08,06,08,51,18.00
2007,08,06,08,52,17.90
2007,08,06,08,53,17.90
2007,08,06,08,54,17.90
2007,08,06,08,55,17.90
2007,08,06,08,56,17.90
2007,08,06,08,57,17.90
2007,08,06,08,58,18.00
2007,08,06,08,59,18.00
2007,08,06,09,00,18.10
2007,08,06,09,01,18.20
2007,08,06,09,02,18.20
2007,08,06,09,03,18.20
2007,08,06,09,04,18.20
2007,08,06,09,05,18.20
2007,08,06,09,06,18.20
2007,08,06,09,07,18.20
2007,08,06,09,08,18.30
2007,08,06,09,09,18.30
2007,08,06,09,10,18.30
2007,08,06,09,11,18.30
2007,08,06,09,12,18.30
2007,08,06,09,13,18.30
2007,08,06,09,14,18.20
2007,08,06,09,15,18.20
2007,08,06,09,16,18.20
2007,08,06,09,17,18.20
2007,08,06,09,18,18.30
2007,08,06,09,19,18.30
2007,08,06,09,20,18.20
2007,08,06,09,21,18.20
2007,08,06,09,22,18.20
2007,08,06,09,23,18.20
2007,08,06,09,24,18.10
2007,08,06,09,25,18.10
2007,08,06,09,26,18.00
2007,08,06,09,27,17.90
2007,08,06,09,28,17.90
2007,08,06,09,29,17.80
2007,08,06,09,30,17.80
2007,08,06,09,31,17.70
2007,08,06,09,32,17.70
2007,08,06,09,33,17.70
2007,08,06,09,34,17.80
2007,08,06,09,35,17.80
2007,08,06,09,36,17.80
2007,08,06,09,37,17.90
2007,08,06,09,38,17.90
2007,08,06,09,39,17.80
2007,08,06,09,40,17.80
2007,08,06,09,41,17.80
2007,08,06,09,42,17.80
2007,08,06,09,43,17.70
2007,08,06,09,44,17.70
2007,08,06,09,45,17.70
2007,08,06,09,46,17.70
2007,08,06,09,47,17.70
2007,08,06,09,48,17.70
2007,08,06,09,49,17.70
2007,08,06,09,50,17.80
2007,08,06,09,51,17.80
2007,08,06,09,52,17.90
2007,08,06,09,53,17.90
2007,08,06,09,54,17.90
2007,08,06,09,55,17.90
2007,08,06,09,56,17.90
2007,08,06,09,57,17.90
2007,08,06,09,58,17.80
2007,08,06,09,59,17.80
2007,08,06,10,00,17.80
2007,08,06,10,01,17.90
2007,08,06,10,02,17.90
2007,08,06,10,03,17.90
2007,08,06,10,04,17.90
2007,08,06,10,05,17.90
2007,08,06,10,06,17.90
2007,08,06,10,07,17.90
2007,08,06,10,08,18.00
2007,08,06,10,09,18.10
2007,08,06,10,10,18.10
2007,08,06,10,11,18.20
2007,08,06,10,12,18.30
2007,08,06,10,13,18.30
2007,08,06,10,14,18.40
2007,08,06,10,15,18.50
2007,08,06,10,16,18.50
2007,08,06,10,17,18.60
2007,08,06,10,18,18.60
2007,08,06,10,19,18.60
2007,08,06,10,20,18.60
2007,08,06,10,21,18.70
2007,08,06,10,22,18.60
2007,08,06,10,23,18.60
2007,08,06,10,24,18.60
2007,08,06,10,25,18.50
2007,08,06,10,26,18.50
2007,08,06,10,27,18.40
2007,08,06,10,28,18.40
2007,08,06,10,29,18.30
2007,08,06,10,30,18.30
2007,08,06,10,31,18.30
2007,08,06,10,32,18.30
2007,08,06,10,33,18.30
2007,08,06,10,34,18.30
2007,08,06,10,35,18.30
2007,08,06,10,36,18.40
2007,08,06,10,37,18.50
2007,08,06,10,38,18.40
2007,08,06,10,39,18.30
2007,08,06,10,40,18.30
2007,08,06,10,41,18.20
2007,08,06,10,42,18.10
2007,08,06,10,43,18.10
2007,08,06,10,44,18.10
2007,08,06,10,45,18.10
2007,08,06,10,46,18.10
2007,08,06,10,47,18.10
2007,08,06,10,48,18.10
2007,08,06,10,49,18.10
2007,08,06,10,50,18.20
2007,08,06,10,51,18.10
2007,08,06,10,52,18.10
2007,08,06,10,53,18.10
2007,08,06,10,54,18.10
2007,08,06,10,55,18.20
2007,08,06,10,56,18.20
2007,08,06,10,57,18.30
2007,08,06,10,58,18.40
2007,08,06,10,59,18.50
2007,08,06,11,00,18.60
2007,08,06,11,01,18.70
2007,08,06,11,02,18.80
2007,08,06,11,03,18.90
2007,08,06,11,04,19.00
2007,08,06,11,05,19.00
2007,08,06,11,06,19.00
2007,08,06,11,07,19.00
2007,08,06,11,08,18.90
2007,08,06,11,09,18.90
2007,08,06,11,10,18.90
2007,08,06,11,11,18.90
2007,08,06,11,12,18.90
2007,08,06,11,13,18.90
2007,08,06,11,14,18.90
2007,08,06,11,15,18.90
2007,08,06,11,16,18.90
2007,08,06,11,17,18.90
2007,08,06,11,18,18.90
2007,08,06,11,19,18.90
2007,08,06,11,20,18.90
2007,08,06,11,21,18.90
2007,08,06,11,22,19.00
2007,08,06,11,23,19.10
2007,08,06,11,24,19.10
2007,08,06,11,25,19.20
2007,08,06,11,26,19.20
2007,08,06,11,27,19.20
2007,08,06,11,28,19.20
2007,08,06,11,29,19.20
2007,08,06,11,30,19.20
2007,08,06,11,31,19.20
2007,08,06,11,32,19.20
2007,08,06,11,33,19.20
2007,08,06,11,34,19.20
2007,08,06,11,35,19.20
2007,08,06,11,36,19.20
2007,08,06,11,37,19.20
2007,08,06,11,38,19.20
2007,08,06,11,39,19.20
2007,08,06,11,40,19.10
2007,08,06,11,41,18.90
2007,08,06,11,42,18.80
2007,08,06,11,43,18.90
2007,08,06,11,44,19.00
2007,08,06,11,45,19.00
2007,08,06,11,46,19.00
2007,08,06,11,47,19.10
2007,08,06,11,48,19.20
2007,08,06,11,49,19.20
2007,08,06,11,50,19.30
2007,08,06,11,51,19.30
2007,08,06,11,52,19.30
2007,08,06,11,53,19.30
2007,08,06,11,54,19.30
2007,08,06,11,55,19.20
2007,08,06,11,56,19.20
2007,08,06,11,57,19.30
2007,08,06,11,58,19.30
2007,08,06,11,59,19.40
2007,08,06,12,00,19.50
2007,08,06,12,01,19.50
2007,08,06,12,02,19.60
2007,08,06,12,03,19.50
2007,08,06,12,04,19.40
2007,08,06,12,05,19.40
2007,08,06,12,06,19.40
2007,08,06,12,07,19.40
2007,08,06,12,08,19.40
2007,08,06,12,09,19.50
2007,08,06,12,10,19.60
2007,08,06,12,11,19.60
2007,08,06,12,12,19.60
2007,08,06,12,13,19.70
2007,08,06,12,14,19.80
2007,08,06,12,15,19.90
2007,08,06,12,16,19.90
2007,08,06,12,17,19.90
2007,08,06,12,18,19.90
2007,08,06,12,19,19.80
2007,08,06,12,20,19.80
2007,08,06,12,21,19.80
2007,08,06,12,22,19.90
2007,08,06,12,23,19.90
2007,08,06,12,24,19.90
2007,08,06,12,25,19.70
2007,08,06,12,26,19.60
2007,08,06,12,27,19.50
2007,08,06,12,28,19.60
2007,08,06,12,29,19.60
2007,08,06,12,30,19.70
2007,08,06,12,31,19.90
2007,08,06,12,32,19.90
2007,08,06,12,33,19.90
2007,08,06,12,34,19.90
2007,08,06,12,35,19.90
2007,08,06,12,36,19.90
2007,08,06,12,37,19.80
2007,08,06,12,38,19.80
2007,08,06,12,39,19.80
2007,08,06,12,40,19.80
2007,08,06,12,41,19.80
2007,08,06,12,42,19.90
2007,08,06,12,43,19.90
2007,08,06,12,44,19.90
2007,08,06,12,45,19.90
2007,08,06,12,46,19.90
2007,08,06,12,47,20.00
2007,08,06,12,48,20.00
2007,08,06,12,49,20.00
2007,08,06,12,50,20.00
2007,08,06,12,51,20.10
2007,08,06,12,52,20.20
2007,08,06,12,53,20.20
2007,08,06,12,54,20.20
2007,08,06,12,55,20.20
2007,08,06,12,56,20.30
2007,08,06,12,57,20.30
2007,08,06,12,58,20.30
2007,08,06,12,59,20.40
2007,08,06,13,00,20.50
2007,08,06,13,01,20.50
2007,08,06,13,02,20.50
2007,08,06,13,03,20.40
2007,08,06,13,04,20.30
2007,08,06,13,05,20.30
2007,08,06,13,06,20.30
2007,08,06,13,07,20.20
2007,08,06,13,08,20.10
2007,08,06,13,09,20.10
2007,08,06,13,10,20.10
2007,08,06,13,11,20.10
2007,08,06,13,12,20.20
2007,08,06,13,13,20.20
2007,08,06,13,14,20.10
2007,08,06,13,15,20.10
2007,08,06,13,16,20.10
2007,08,06,13,17,20.10
2007,08,06,13,18,20.20
2007,08,06,13,19,20.20
2007,08,06,13,20,20.20
2007,08,06,13,21,20.20
2007,08,06,13,22,20.20
2007,08,06,13,23,20.30
2007,08,06,13,24,20.30
2007,08,06,13,25,20.30
2007,08,06,13,26,20.30
2007,08,06,13,27,20.30
2007,08,06,13,28,20.30
2007,08,06,13,29,20.30
2007,08,06,13,30,20.20
2007,08,06,13,31,20.20
2007,08,06,13,32,20.20
2007,08,06,13,33,20.10
2007,08,06,13,34,20.10
2007,08,06,13,35,20.10
2007,08,06,13,36,20.30
2007,08,06,13,37,20.50
2007,08,06,13,38,20.50
2007,08,06,13,39,20.50
2007,08,06,13,40,20.30
2007,08,06,13,41,20.30
2007,08,06,13,42,20.20
2007,08,06,13,43,20.30
2007,08,06,13,44,20.30
2007,08,06,13,45,20.30
2007,08,06,13,46,20.20
2007,08,06,13,47,20.30
2007,08,06,13,48,20.40
2007,08,06,13,49,20.40
2007,08,06,13,50,20.40
2007,08,06,13,51,20.50
2007,08,06,13,52,20.50
2007,08,06,13,53,20.50
2007,08,06,13,54,20.60
2007,08,06,13,55,20.60
2007,08,06,13,56,20.70
2007,08,06,13,57,20.70
2007,08,06,13,58,20.60
2007,08,06,13,59,20.60
2007,08,06,14,00,20.70
2007,08,06,14,01,20.80
2007,08,06,14,02,20.80
2007,08,06,14,03,20.70
2007,08,06,14,04,20.70
2007,08,06,14,05,20.60
2007,08,06,14,06,20.50
2007,08,06,14,07,20.40
2007,08,06,14,08,20.30
2007,08,06,14,09,20.30
2007,08,06,14,10,20.30
2007,08,06,14,11,20.30
2007,08,06,14,12,20.30
2007,08,06,14,13,20.30
2007,08,06,14,14,20.30
2007,08,06,14,15,20.40
2007,08,06,14,16,20.40
2007,08,06,14,17,20.40
2007,08,06,14,18,20.40
2007,08,06,14,19,20.50
2007,08,06,14,20,20.60
2007,08,06,14,21,20.60
2007,08,06,14,22,20.60
2007,08,06,14,23,20.60
2007,08,06,14,24,20.50
2007,08,06,14,25,20.60
2007,08,06,14,26,20.70
2007,08,06,14,27,20.60
2007,08,06,14,28,20.60
2007,08,06,14,29,20.60
2007,08,06,14,30,20.60
2007,08,06,14,31,20.60
2007,08,06,14,32,20.60
2007,08,06,14,33,20.70
2007,08,06,14,34,20.80
2007,08,06,14,35,20.90
2007,08,06,14,36,21.00
2007,08,06,14,37,21.10
2007,08,06,14,38,21.10
2007,08,06,14,39,21.10
2007,08,06,14,40,21.10
2007,08,06,14,41,21.10
2007,08,06,14,42,21.20
2007,08,06,14,43,21.30
2007,08,06,14,44,21.20
2007,08,06,14,45,21.10
2007,08,06,14,46,21.00
2007,08,06,14,47,20.90
2007,08,06,14,48,21.00
2007,08,06,14,49,21.00
2007,08,06,14,50,21.10
2007,08,06,14,51,21.20
2007,08,06,14,52,21.20
2007,08,06,14,53,21.20
2007,08,06,14,54,21.20
2007,08,06,14,55,21.10
2007,08,06,14,56,21.10
2007,08,06,14,57,21.10
2007,08,06,14,58,21.10
2007,08,06,14,59,21.00
2007,08,06,15,00,21.00
2007,08,06,15,01,21.00
2007,08,06,15,02,21.00
2007,08,06,15,03,21.00
2007,08,06,15,04,21.00
2007,08,06,15,05,21.10
2007,08,06,15,06,21.20
2007,08,06,15,07,21.40
2007,08,06,15,08,21.50
2007,08,06,15,09,21.70
2007,08,06,15,10,21.80
2007,08,06,15,11,21.80
2007,08,06,15,12,21.80
2007,08,06,15,13,21.80
2007,08,06,15,14,21.80
2007,08,06,15,15,21.70
2007,08,06,15,16,21.80
2007,08,06,15,17,21.80
2007,08,06,15,18,21.80
2007,08,06,15,19,21.80
2007,08,06,15,20,21.80
2007,08,06,15,21,21.80
2007,08,06,15,22,21.80
2007,08,06,15,23,21.80
2007,08,06,15,24,21.80
2007,08,06,15,25,21.70
2007,08,06,15,26,21.60
2007,08,06,15,27,21.60
2007,08,06,15,28,21.60
2007,08,06,15,29,21.60
2007,08,06,15,30,21.60
2007,08,06,15,31,21.70
2007,08,06,15,32,21.70
2007,08,06,15,33,21.60
2007,08,06,15,34,21.60
2007,08,06,15,35,21.60
2007,08,06,15,36,21.70
2007,08,06,15,37,21.70
2007,08,06,15,38,21.60
2007,08,06,15,39,21.60
2007,08,06,15,40,21.60
2007,08,06,15,41,21.60
2007,08,06,15,42,21.60
2007,08,06,15,43,21.60
2007,08,06,15,44,21.60
2007,08,06,15,45,21.60
2007,08,06,15,46,21.60
2007,08,06,15,47,21.70
2007,08,06,15,48,21.80
2007,08,06,15,49,21.80
2007,08,06,15,50,21.90
2007,08,06,15,51,22.00
2007,08,06,15,52,22.10
2007,08,06,15,53,22.00
2007,08,06,15,54,21.90
2007,08,06,15,55,21.80
2007,08,06,15,56,21.80
2007,08,06,15,57,21.70
2007,08,06,15,58,21.60
2007,08,06,15,59,21.50
2007,08,06,16,00,21.50
2007,08,06,16,01,21.50
2007,08,06,16,02,21.40
2007,08,06,16,03,21.50
2007,08,06,16,04,21.50
2007,08,06,16,05,21.60
2007,08,06,16,06,21.60
2007,08,06,16,07,21.60
2007,08,06,16,08,21.70
2007,08,06,16,09,21.80
2007,08,06,16,10,21.80
2007,08,06,16,11,21.80
2007,08,06,16,12,21.80
2007,08,06,16,13,21.80
2007,08,06,16,14,21.80
2007,08,06,16,15,21.90
2007,08,06,16,16,22.00
2007,08,06,16,17,22.10
2007,08,06,16,18,22.20
2007,08,06,16,19,22.20
2007,08,06,16,20,22.20
2007,08,06,16,21,22.10
2007,08,06,16,22,22.10
2007,08,06,16,23,22.00
2007,08,06,16,24,22.00
2007,08,06,16,25,22.10
2007,08,06,16,26,22.10
2007,08,06,16,27,22.20
2007,08,06,16,28,22.20
2007,08,06,16,29,22.10
2007,08,06,16,30,22.10
2007,08,06,16,31,22.10
2007,08,06,16,32,22.10
2007,08,06,16,33,22.10
2007,08,06,16,34,22.20
2007,08,06,16,35,22.20
2007,08,06,16,36,22.30
2007,08,06,16,37,22.40
2007,08,06,16,38,22.40
2007,08,06,16,39,22.40
2007,08,06,16,40,22.40
2007,08,06,16,41,22.40
2007,08,06,16,42,22.30
2007,08,06,16,43,22.30
2007,08,06,16,44,22.40
2007,08,06,16,45,22.30
2007,08,06,16,46,22.20
2007,08,06,16,47,22.10
2007,08,06,16,48,22.00
2007,08,06,16,49,21.90
2007,08,06,16,50,21.80
2007,08,06,16,51,21.80
2007,08,06,16,52,21.80
2007,08,06,16,53,21.80
2007,08,06,16,54,21.80
2007,08,06,16,55,21.80
2007,08,06,16,56,21.80
2007,08,06,16,57,21.80
2007,08,06,16,58,21.80
2007,08,06,16,59,21.80
2007,08,06,17,00,21.90
2007,08,06,17,01,21.90
2007,08,06,17,02,22.00
2007,08,06,17,03,22.10
2007,08,06,17,04,22.10
2007,08,06,17,05,22.00
2007,08,06,17,06,22.00
2007,08,06,17,07,22.00
2007,08,06,17,08,22.00
2007,08,06,17,09,22.10
2007,08,06,17,10,22.00
2007,08,06,17,11,22.10
2007,08,06,17,12,22.20
2007,08,06,17,13,22.20
2007,08,06,17,14,22.20
2007,08,06,17,15,22.20
2007,08,06,17,16,22.30
2007,08,06,17,17,22.30
2007,08,06,17,18,22.20
2007,08,06,17,19,22.20